sat.trackr.live / text

‹ back to catalog

STARLINK-34484

NORAD 64366 · 2025-126Y

PAYLOAD ACTIVE UNKNOWN

§ Identity

Operator
Country
US
Launch date
2025-06-13
Launch site
AFWTR
Launch vehicle
Mass (kg)
RCS (m²)

Purposes: comms

External: N2YO · Heavens-Above · Gunter

§ Orbital elements

Epoch: 2026-09-20T10:13:00.275232Z

Period
94.14 min
Inclination
70.0008°
Eccentricity
0.0004000
Mean motion
15.29592156 rev/d
Perigee alt
474.3 km
Apogee alt
479.8 km
Semi-major
6,855.2 km
B*
4.9105e-4
RAAN
260.9719°
Arg perigee
270.2784°
Mean anomaly
89.7933°
Rev number
7,112

§ Raw data

STARLINK-344841 64366U 25126Y   26263.42569763  .00014021  00000+0  49105-3 0  99912 64366  70.0008 260.9719 0004000 270.2784  89.7933 15.29592156 71125

JSON: /api/v1/satellites/64366 · /tle

For live sub-satellite position, see the globe view (requires WebGL).

§ Visibility from observer

Set your observer location to see the next 7 days of passes ≥ 10°. The values pass through the URL so the page stays shareable.

No JS? Fill the form by hand. The geolocation button needs JavaScript.